Regional Weather Roundup
Issued by NWS

Home | Current Version | Previous Version | Graphics & Text | Print | Product List | Glossary On
Versions: 1 2 3 4 5 6 7 8 9 10 11 12 13 14 15 16 17 18 19 20 21 22 23 24 25 26 27 28 29 30 31 32 33 34 35 36 37 38 39 40 41 42 43 44 45 46 47 48 49 50
000
ASUS43 KDMX 220901
RWRIA

WEATHER ROUNDUP FOR IOWA
NATIONAL WEATHER SERVICE DES MOINES IA
300 AM CST WED NOV 22 2017

NOTE: "FAIR" INDICATES FEW OR NO CLOUDS BELOW 12,000 FEET WITH NO
SIGNIFICANT WEATHER AND/OR OBSTRUCTIONS TO VISIBILITY.

* - THESE STATIONS ARE NOT NWS STATIONS...THUS NOT UNDER NWS
QUALITY CONTROL.  THEY ALSO DO NOT REPORT WEATHER SUCH
AS PRECIPITATION OR FOG.

IAZ001>003-012>014-020>022-031>034-043>046-221000-
   NORTHWEST IOWA

CITY           SKY/WX    TMP DP  RH WIND       PRES   REMARKS
CARROLL *      CLOUDY    14   9  79 W6        30.38F WCI   5
CHEROKEE *     CLOUDY    13  11  90 CALM      30.38F
DENISON *      CLOUDY    14  10  85 E3        30.40F
LE MARS *      CLOUDY    12   9  85 CALM      30.38F
ORANGE CITY *  CLOUDY    12   9  85 CALM      30.35F
SHELDON *      CLOUDY     9   5  85 CALM      30.35S
SIOUX CITY     CLOUDY    12   8  84 CALM      30.40F
SPENCER        CLOUDY    11   6  81 W5        30.36F WCI   3
STORM LAKE *   CLOUDY    14   9  79 NW7       30.35F WCI   4
$$

IAZ055>058-069>071-079>083-090>094-221000-
   SOUTHWEST IOWA

CITY           SKY/WX    TMP DP  RH WIND       PRES   REMARKS
ATLANTIC *     CLOUDY    16  10  79 CALM      30.40F
AUDUBON *      CLOUDY    14   9  79 CALM      30.38F
CLARINDA *     CLOUDY    16  12  86 N6        30.44R WCI   7
COUNCIL BLFS * CLOUDY    18  12  79 NW5       30.41R WCI  11
CRESTON *      CLOUDY    16  12  86 NW7       30.40R WCI   6
HARLAN  *      CLOUDY    14   9  79 CALM      30.43S
LAMONI         CLOUDY    17  11  77 N7        30.38S WCI   8
RED OAK *      CLOUDY    16  12  86 CALM      30.42S
SHENANDOAH *   CLOUDY    18  12  79 CALM      30.44S
$$

IAZ047>049-059>061-072>074-084-221000-
   CENTRAL IOWA

CITY           SKY/WX    TMP DP  RH WIND       PRES   REMARKS
AMES           CLOUDY    19  12  74 NW8       30.40R WCI   9
ANKENY *       CLOUDY    19  12  73 NW8       30.41S WCI   9
BOONE *        CLOUDY    18  10  73 NW7       30.37F WCI   8
CHARITON *     CLOUDY    19  12  73 NW6       30.39S WCI  11
DES MOINES     CLOUDY    20  11  68 NW8       30.40S WCI  10
GRINNELL*      CLOUDY    17  13  85 NW6       30.38S WCI   8
KNOXVILLE *    CLOUDY    18  10  73 NW6       30.38S WCI   9
MARSHALLTOWN   CLOUDY    15  12  88 NW5       30.37R WCI   8
NEWTON *       PTCLDY    19  12  73 NW7       30.38S WCI  10
PELLA *        PTCLDY    19  13  76 NW6       30.41S WCI  11
PERRY *          N/A     15  11  84 NW3       30.40S
$$

IAZ004>006-015-016-023>025-035-036-221000-
   NORTH CENTRAL IOWA

CITY           SKY/WX    TMP DP  RH WIND       PRES   REMARKS
ALGONA *       CLOUDY    16  10  79 NW7       30.35S WCI   6
CLARION *      CLOUDY    14  12  92 NW6       30.37R WCI   5
ESTHERVILLE    CLOUDY    10   7  87 W6        30.35F WCI   0
FORT DODGE *   CLOUDY    16  10  77 CALM      30.37F
MASON CITY     CLOUDY    14   9  80 NW8       30.36R WCI   3
FOREST CITY *    N/A     18  12  79 NW5       30.36R WCI  11
WEBSTER CITY * CLOUDY    16   9  73 W8        30.35F WCI   5
IOWA FALLS *     N/A     18  13  80 NW6       30.38R WCI   9
$$

IAZ007>011-017>019-026>030-037>042-050>054-066-221000-
   NORTHEAST IOWA

CITY           SKY/WX    TMP DP  RH WIND       PRES   REMARKS
CEDAR RAPIDS   CLOUDY    16  11  80 NW8       30.34R WCI   5
CHARLES CITY * CLOUDY    18  12  79 NW8       30.35R WCI   7
CLINTON *      CLEAR     15  12  88 W8        30.34R WCI   4
DECORAH *      CLOUDY    18  12  79 NW8       30.31S WCI   7
DUBUQUE        CLEAR     18  12  77 N9        30.31R WCI   7
MONTICELLO *   CLOUDY    18  12  79 W5        30.34R WCI  11
OELWEIN *      CLOUDY    16  16 100 NW8       30.34R WCI   5
WATERLOO       CLOUDY    16  11  80 NW9       30.36S WCI   4
$$

IAZ064-065-067-068-078-221000-
   EAST CENTRAL IOWA

CITY           SKY/WX    TMP DP  RH WIND       PRES   REMARKS
DAVENPORT      CLOUDY    19  14  81 NW8       30.36R WCI   9
IOWA CITY      CLOUDY    21  13  71 NW7       30.39R WCI  12
MT. PLEASANT * CLOUDY    21  14  75 NW9       30.38R WCI  10
MUSCATINE *    CLOUDY    19  14  79 W3        30.38R
QUAD CITIES    CLOUDY    22  14  71 NW6       30.35R WCI  14
$$

IAZ062-063-075>077-085>089-095>099-221000-
   SOUTHEAST IOWA

CITY           SKY/WX    TMP DP  RH WIND       PRES   REMARKS
BURLINGTON     CLOUDY    21  16  81 NW8       30.37R WCI  11
FAIRFIELD *    PTCLDY    19  12  73 NW7       30.38R WCI  10
FORT MADISON * CLOUDY    19  16  86 NW5       30.38R WCI  13
KEOKUK *       CLOUDY    23  16  74 NW8       30.38R WCI  14
OSKALOOSA *      N/A     18  14  84 NW6       30.39S WCI  10
OTTUMWA        PTCLDY    19  12  74 W7        30.39R WCI  10
WASHINGTON *   CLOUDY    19  16  86 NW9       30.39R WCI   9
$$

ABBREVIATIONS USED IN REMARKS
   TC - TEMPERATURES IN CELSIUS
  WCI - WIND CHILL INDEX
   HX - HEAT INDEX
  VSB - VISIBILITY
$$





USA.gov is the U.S. government's official web portal to all federal, state and local government web resources and services.